Jackson Hawkins Field, MS

4:43 PM CDT on March 24, 2017 (GMT -0500)
Hawkins

Weather History for KHKS - November, 2012

Change the Weather History Date:

Friday, November 2, 2012

  Actual Average (KJAN) Record (KJAN)
Temperature  
Mean Temperature 68 °F -  
Max Temperature 84 °F 72 °F 88 °F (1971)
Min Temperature 53 °F 47 °F 21 °F (1966)
Cooling Degree Days 4    
Growing Degree Days 18 (Base 50)    
Moisture  
Dew Point 57 °F    
Average Humidity 73    
Maximum Humidity 93    
Minimum Humidity 44    
Precipitation  
Precipitation 0.00 in - - ()
Sea Level Pressure  
Sea Level Pressure 30.00 in    
Wind  
Wind Speed 3 mph (SW)    
Max Wind Speed 10 mph    
Max Gust Speed 18 mph    
Visibility 9 miles    
Events      
Averages and records for this station are not official NWS values.
T = Trace of Precipitation, MM = Missing Value Source: NWS Daily Summary

Daily Weather History Graph

Daily Weather History Graph

Search for Another Location

Airport or City:

Trip Planner

Search our weather history database for the weather conditions in past years. The results will help you decide how hot, cold, wet, or windy it might be!

Date:

Astronomy

Nov. 02, 2012 Rise Set
Actual Time 7:19 AM CDT 6:09 PM CDT
Civil Twilight 6:53 AM CDT 6:34 PM CDT
Nautical Twilight 6:24 AM CDT 7:03 PM CDT
Astronomical Twilight 5:56 AM CDT 7:32 PM CDT
Moon 9:03 PM CDT (11/2) 10:32 AM CDT (11/2)
Length of Visible Light 11h 40m
Length of Day
10h 49m
Waning Gibbous, 87% of the Moon is Illuminated
Nov 2
Waning Gibbous
Nov 6
Last Quarter
Nov 13
New
Nov 20
First Quarter
Nov 28
Full

Hourly Weather History & Observations

Time (CDT) Temp. Heat Index Dew Point Humidity Pressure Visibility Wind Dir Wind Speed Gust Speed Precip Events Conditions
12:53 AM 53.1 °F - 48.9 °F 86% 29.99 in 10.0 mi Calm Calm - N/A   Clear
1:53 AM 53.1 °F - 48.9 °F 86% 29.99 in 10.0 mi Calm Calm - N/A   Clear
2:53 AM 54.0 °F - 48.9 °F 83% 29.99 in 10.0 mi SE 3.5 mph - N/A   Clear
3:53 AM 53.1 °F - 48.9 °F 86% 29.97 in 10.0 mi ESE 3.5 mph - N/A   Clear
4:53 AM 53.1 °F - 50.0 °F 89% 29.98 in 9.0 mi Calm Calm - N/A   Clear
5:53 AM 54.0 °F - 51.1 °F 90% 29.99 in 9.0 mi Calm Calm - N/A   Clear
6:53 AM 53.1 °F - 51.1 °F 93% 30.00 in 6.0 mi SE 3.5 mph - N/A   Clear
7:53 AM 55.0 °F - 52.0 °F 89% 30.01 in 4.0 mi Calm Calm - N/A   Clear
8:53 AM 62.1 °F - 57.0 °F 84% 30.02 in 6.0 mi Calm Calm - N/A   Haze
9:53 AM 70.0 °F - 61.0 °F 73% 30.04 in 10.0 mi West 8.1 mph - N/A   Clear
10:53 AM 75.0 °F - 62.1 °F 64% 30.04 in 10.0 mi West 9.2 mph - N/A   Clear
11:53 AM 79.0 °F - 62.1 °F 56% 30.03 in 10.0 mi West 8.1 mph - N/A   Clear
12:53 PM 81.0 °F 81.9 °F 62.1 °F 52% 30.00 in 10.0 mi Variable 6.9 mph 18.4 mph N/A   Clear
1:53 PM 82.9 °F 83.2 °F 60.1 °F 46% 29.98 in 10.0 mi WSW 10.4 mph 18.4 mph N/A   Clear
2:53 PM 84.0 °F 84.0 °F 60.1 °F 44% 29.96 in 10.0 mi West 9.2 mph 16.1 mph N/A   Clear
3:53 PM 82.9 °F 83.2 °F 60.1 °F 46% 29.96 in 10.0 mi West 9.2 mph - N/A   Clear
4:53 PM 82.0 °F 82.4 °F 60.1 °F 47% 29.96 in 10.0 mi WSW 9.2 mph - N/A   Clear
5:53 PM 78.1 °F - 61.0 °F 56% 29.97 in 10.0 mi WSW 3.5 mph - N/A   Clear
6:53 PM 73.0 °F - 61.0 °F 66% 29.98 in 10.0 mi SW 3.5 mph - N/A   Clear
7:53 PM 70.0 °F - 61.0 °F 73% 29.99 in 10.0 mi Calm Calm - N/A   Clear
8:53 PM 66.9 °F - 61.0 °F 81% 30.00 in 10.0 mi Calm Calm - N/A   Clear
9:53 PM 66.9 °F - 61.0 °F 81% 30.01 in 10.0 mi Calm Calm - N/A   Clear
10:53 PM 64.0 °F - 60.1 °F 87% 30.02 in 10.0 mi Calm Calm - N/A   Clear
11:53 PM 62.1 °F - 59.0 °F 90% 30.02 in 10.0 mi Calm Calm - N/A   Clear